Terminal Aerodrome Forecast
Issued by NWS

Home | Current Version | Previous Version | Text Only | Print | Product List | Glossary On
Versions: 1 2 3 4 5 6 7 8 9 10 11 12 13 14 15 16 17 18 19 20 21 22 23 24 25 26 27 28 29 30 31 32 33 34 35 36 37 38 39 40 41 42 43 44
893
FTUS43 KGRB 090111 AAA
TAFATW
TAF AMD
KATW 090111Z 0901/0924 22004KT P6SM BKN035
     FM090300 28006KT 2SM -SN OVC015
      TEMPO 0904/0908 1/2SM SN OVC006
     FM090800 34009G15KT 5SM -SN BKN016
     FM091200 35015G26KT 6SM -SN BLSN BKN024
     FM091600 34014G24KT P6SM SCT035=

USA.gov is the U.S. government's official web portal to all federal, state and local government web resources and services.